Doha, Qatar

10:46 PM AST on February 14, 2016 (GMT +0300)
Doha International

Weather History for OTBD - November, 2010

Change the Weather History Date:

Wednesday, November 3, 2010

  Actual Average Record
Temperature  
Mean Temperature 86 °F -  
Max Temperature 95 °F 84 °F 95 °F (2013)
Min Temperature 77 °F 66 °F 62 °F (1997)
Cooling Degree Days 21    
Growing Degree Days 36 (Base 50)    
Moisture  
Dew Point 70 °F    
Average Humidity 60    
Maximum Humidity 79    
Minimum Humidity 34    
Precipitation  
Precipitation 0.00 in 0.01 in - ()
Sea Level Pressure  
Sea Level Pressure 29.99 in    
Wind  
Wind Speed 6 mph ()    
Max Wind Speed 13 mph    
Max Gust Speed -    
Visibility 6.9 miles    
Events      
Averages and records for this station are not official NWS values.
T = Trace of Precipitation, MM = Missing Value Source: Averaged Metar Reports

Daily Weather History Graph

Daily Weather History Graph

Search for Another Location

Airport or City:

Trip Planner

Search our weather history database for the weather conditions in past years. The results will help you decide how hot, cold, wet, or windy it might be!

Date:

Astronomy

Nov. 03, 2010 Rise Set
Actual Time 5:42 AM AST 4:51 PM AST
Civil Twilight 5:18 AM AST 5:15 PM AST
Nautical Twilight 4:51 AM AST 5:42 PM AST
Astronomical Twilight 4:24 AM AST 6:09 PM AST
Moon 2:30 AM AST (11/3) 2:36 PM AST (11/3)
Length of Visible Light 11h 56m
Length of Day
11h 09m
Waning Crescent, 11% of the Moon is Illuminated
Nov 3
Waning Crescent
Nov 6
New
Nov 13
First Quarter
Nov 21
Full
Nov 28
Last Quarter

Hourly Weather History & Observations

Time (AST) Temp. Heat Index Dew Point Humidity Pressure Visibility Wind Dir Wind Speed Gust Speed Precip Events Conditions
12:00 AM 84.2 °F 87.3 °F 68.0 °F 58% 29.92 in - SSE 8.1 mph - N/A   Clear
12:30 AM 82.4 °F 84.6 °F 66.2 °F 58% 29.92 in - SE 6.9 mph - N/A   Clear
1:00 AM 82.4 °F 85.4 °F 68.0 °F 62% 29.92 in - SE 4.6 mph - N/A   Clear
1:30 AM 82.4 °F 85.4 °F 68.0 °F 62% 29.92 in - SSE 5.8 mph - N/A   Clear
2:00 AM 84.2 °F 88.4 °F 69.8 °F 62% 29.92 in - SSE 8.1 mph - N/A   Clear
2:30 AM 82.4 °F 86.3 °F 69.8 °F 66% 29.92 in - Variable 2.3 mph - N/A   Clear
3:00 AM 82 °F - 69 °F 58% 29.94 in 7 mi 2.3 mph - -  
3:00 AM 82.4 °F 86.3 °F 69.8 °F 66% 29.92 in - Variable 2.3 mph - N/A   Clear
3:30 AM 80.6 °F 83.9 °F 69.8 °F 70% 29.92 in - Variable 1.2 mph - N/A   Clear
4:00 AM 80.6 °F 84.6 °F 71.6 °F 74% 29.92 in - Calm Calm - N/A   Clear
4:20 AM 82.4 °F 86.3 °F 69.8 °F 66% 29.92 in - Variable 2.3 mph - N/A   Clear
4:30 AM 80.6 °F 84.6 °F 71.6 °F 74% 29.95 in - SSE 3.5 mph - N/A   Clear
5:00 AM 80.6 °F 84.6 °F 71.6 °F 74% 29.95 in - SSE 3.5 mph - N/A   Clear
5:30 AM 82.4 °F 87.2 °F 71.6 °F 70% 29.95 in - South 4.6 mph - N/A   Clear
6:00 AM 80.6 °F 84.6 °F 71.6 °F 74% 29.98 in - SSW 6.9 mph - N/A   Clear
6:30 AM 80.6 °F 83.9 °F 69.8 °F 70% 29.98 in - South 6.9 mph - N/A   Clear
7:00 AM 80.6 °F 83.9 °F 69.8 °F 70% 29.98 in - SSW 6.9 mph - N/A   Clear
7:30 AM 82.4 °F 86.3 °F 69.8 °F 66% 30.01 in - SSW 5.8 mph - N/A   Clear
8:00 AM 84.2 °F 90.9 °F 73.4 °F 70% 30.01 in - SSW 6.9 mph - N/A   Clear
8:30 AM 86.0 °F 93.4 °F 73.4 °F 66% 30.04 in - SSW 6.9 mph - N/A   Clear
9:00 AM 88 °F - 73 °F 54% 30.05 in 9 mi South 9.2 mph - -   Clear
9:00 AM 87.8 °F 95.6 °F 73.4 °F 62% 30.04 in - South 9.2 mph - N/A   Clear
9:30 AM 89.6 °F 96.2 °F 71.6 °F 55% 30.04 in - South 10.4 mph - N/A   Clear
10:00 AM 89.6 °F 96.2 °F 71.6 °F 55% 30.04 in - SSE 11.5 mph - N/A   Clear
10:30 AM 91.4 °F 96.8 °F 69.8 °F 49% 30.01 in - South 10.4 mph - N/A   Clear
11:00 AM 91.4 °F 95.4 °F 68.0 °F 46% 30.01 in - South 11.5 mph - N/A   Clear
11:30 AM 93.2 °F 96.2 °F 66.2 °F 41% 30.01 in 6.2 mi SSE 11.5 mph - N/A   Partly Cloudy
12:00 PM 93.2 °F 96.2 °F 66.2 °F 41% 29.98 in 6.2 mi SSE 9.2 mph - N/A   Partly Cloudy
12:30 PM 93.2 °F 97.7 °F 68.0 °F 44% 29.98 in 6.2 mi SSE 8.1 mph - N/A   Partly Cloudy
1:30 PM 91.4 °F 95.4 °F 68.0 °F 46% 29.98 in 6.2 mi South 12.7 mph - N/A   Partly Cloudy
2:00 PM 91.4 °F 94.0 °F 66.2 °F 43% 29.98 in 6.2 mi SSE 12.7 mph - N/A   Partly Cloudy
2:30 PM 91.4 °F 94.0 °F 66.2 °F 43% 29.98 in 6.2 mi SSE 12.7 mph - N/A   Partly Cloudy
3:00 PM 90 °F - 65 °F 34% 29.98 in 10 mi SSE 12.7 mph - -   Scattered Clouds
3:00 PM 91.4 °F 94.0 °F 66.2 °F 43% 29.98 in 6.2 mi SSE 12.7 mph - N/A   Partly Cloudy
3:30 PM 89.6 °F 92.2 °F 66.2 °F 46% 29.98 in 6.2 mi SE 11.5 mph - N/A   Partly Cloudy
4:00 PM 89.6 °F 91.1 °F 64.4 °F 43% 29.98 in 6.2 mi SSE 11.5 mph - N/A   Partly Cloudy
4:30 PM 87.8 °F 90.4 °F 66.2 °F 49% 29.98 in 6.2 mi SSE 9.2 mph - N/A   Partly Cloudy
5:00 PM 86.0 °F 90.4 °F 69.8 °F 58% 30.01 in - SE 9.2 mph - N/A   Clear
5:30 PM 86.0 °F 90.4 °F 69.8 °F 58% 30.01 in 6.2 mi SE 8.1 mph - N/A   Partly Cloudy
6:00 PM 86.0 °F 90.4 °F 69.8 °F 58% 30.01 in - SE 3.5 mph - N/A   Clear
6:30 PM 84.2 °F 88.4 °F 69.8 °F 62% 30.04 in - ENE 1.2 mph - N/A   Clear
7:00 PM 84.2 °F 89.6 °F 71.6 °F 66% 30.04 in - NE 5.8 mph - N/A   Clear
7:30 PM 84.2 °F 89.6 °F 71.6 °F 66% 30.04 in - ENE 3.5 mph - N/A   Clear
8:00 PM 84.2 °F 89.6 °F 71.6 °F 66% 30.04 in - ESE 3.5 mph - N/A   Clear
8:30 PM 82.4 °F 87.2 °F 71.6 °F 70% 30.04 in - ENE 3.5 mph - N/A   Clear
9:00 PM 84 °F - 72 °F 58% 30.05 in 9 mi ENE 3.5 mph - -  
9:00 PM 84.2 °F 89.6 °F 71.6 °F 66% 30.04 in - ENE 3.5 mph - N/A   Clear
9:30 PM 84.2 °F 90.9 °F 73.4 °F 70% 30.04 in - NNE 3.5 mph - N/A   Clear
10:00 PM 82.4 °F 88.2 °F 73.4 °F 74% 30.04 in - NE 3.5 mph - N/A   Clear
10:30 PM 82.4 °F 88.2 °F 73.4 °F 74% 30.04 in - Variable 2.3 mph - N/A   Clear
11:00 PM 82.4 °F 88.2 °F 73.4 °F 74% 30.04 in - Variable 1.2 mph - N/A   Clear
11:30 PM 80.6 °F 85.4 °F 73.4 °F 79% 30.01 in - Variable 1.2 mph - N/A   Clear